sat.trackr.live / text

‹ back to catalog

RASSVET-3 5

NORAD 68364 · 2026-061E

PAYLOAD ACTIVE UNKNOWN

§ Identity

Operator
Country
CIS
Launch date
2026-03-23
Launch site
PLMSC
Launch vehicle
Mass (kg)
RCS (m²)

External: N2YO · Heavens-Above · Gunter

§ Orbital elements

Epoch: 2026-05-25T03:49:29.878176Z

Period
92.46 min
Inclination
82.2962°
Eccentricity
0.0006691
Mean motion
15.57495081 rev/d
Perigee alt
390.4 km
Apogee alt
399.4 km
Semi-major
6,773.0 km
B*
3.3957e-4
RAAN
38.9165°
Arg perigee
114.9622°
Mean anomaly
245.2328°
Rev number
986

§ Raw data

RASSVET-3 51 68364U 26061E   26145.15937359  .00025052  00000+0  33957-3 0  99952 68364  82.2962  38.9165 0006691 114.9622 245.2328 15.57495081  9861

JSON: /api/v1/satellites/68364 · /tle

For live sub-satellite position, see the globe view (requires WebGL).

§ Visibility from observer

Set your observer location to see the next 7 days of passes ≥ 10°. The values pass through the URL so the page stays shareable.

No JS? Fill the form by hand. The geolocation button needs JavaScript.